Terminal Aerodrome Forecast
Issued by NWS North Platte, NE

Home | Current Version | Previous Version | Graphics & Text | Print | Product List | Glossary On
Versions: 1 2 3 4 5 6 7 8 9 10 11 12 13 14 15 16 17 18 19 20 21
000
FTUS43 KLBF 160500
TAFVTN
TAF
KVTN 160520Z 1606/1706 29014KT P6SM OVC100
      TEMPO 1606/1609 VRB06KT
     FM161100 32021G31KT P6SM OVC050
      TEMPO 1614/1618 4SM -SHRASN OVC020
     FM162000 34021G31KT P6SM OVC050
     FM170100 36016KT P6SM BKN050=

USA.gov is the U.S. government's official web portal to all federal, state and local government web resources and services.